www.pogodaiklimat.ru

Погода и климат >> Архив погоды >> Корея >> Инчхон


ПОГОДА в Инчхоне

  • Прогноз погоды в Инчхоне
  • Монитор погоды в Инчхоне

АРХИВ ПОГОДЫ в Инчхоне

Время (UTC), дата Ветер
(напр.,м/с)
 
Видим.   Явления Облачность Т
(С)
Тd
(С)
f
(%)
Тe
(С)
Тes
(С)
Комфортность P
(гПа)
Po
(гПа)
Тmin
(С)
Tmax
(С)
R
(мм)
R24
(мм)
S
(см)
21 15.08 Ю 2 20 км слаб. дождь 10/9 300 м
[Sc As op]
+23.9 +21.9 89 +31 +31 очень
душно
993.1 985.4
00 16.08 З 7 20 км {дождь} 8/8 200 м
[Sc]
+26.0 +23.4 86 +35 +36 очень
душно
994.0 986.3 +23.8 0.0
03 16.08 20 км н/о +27.8 +23.1 76 +37 +39 очень
душно
994.4 986.8
06 16.08 З 6 16 км 8/8 300 м
[Sc]
+27.7 +23.0 76 +37 +38 очень
душно
995.2 987.5
09 16.08 З 5 16 км ясно +26.8 +23.0 80 +36 +37 очень
душно
996.4 988.7
12 16.08 З 9 12 км ясно +25.3 +21.9 81 +33 +33 очень
душно
998.4 990.6 +29.0 0.0
15 16.08 12 км н/о +24.7 +22.1 85 +32 +32 очень
душно
999.4 991.7
18 16.08 З 4 11 км 3/3 300 м
[Sc]
+24.7 +22.5 88 +32 +32 очень
душно
999.8 992.1
21 16.08 З 2 19 км 8/4 1000 м
[Sc Ac trans]
+24.1 +19.3 75 +29 +29 душно 1000.3 992.5
00 17.08 З 4 20 км 10/8 600 м
[Sc As trans]
+25.1 +20.3 75 +31 +31 очень
душно
1001.0 993.2 +24.0 0.0
03 17.08 З 3 20 км {дождь} 9// 600 м
[Sc]
+26.3 +20.8 72 +33 +41 очень
душно
1000.8 993.1
06 17.08 З 4 20 км 8/8 1000 м
[Sc]
+28.0 +20.0 62 +34 +36 очень
душно
1000.1 992.4
09 17.08 З 4 20 км 1/1 1000 м
[Sc]
+26.5 +20.3 69 +33 +34 очень
душно
1000.9 993.2
12 17.08 З 6 20 км ясно +24.3 +19.5 75 +30 +30 очень
душно
1003.0 995.2 +28.5 0.0
15 17.08 З 3 20 км ясно +23.5 +20.0 81 +29 +29 душно 1004.3 996.5
18 17.08 н/о
21 17.08 11 км н/о +23.2 +21.2 89 +31 +31 очень
душно
1005.4 997.6
00 18.08 З 4 20 км 4/4 600 м
[Sc]
+25.2 +17.8 64 +30 +33 душно 1006.8 999.0 +23.2 0.0
03 18.08 ЮЗ 3 13 км 8/4 1000 м
[Sc Ci fib]
+26.8 +19.4 64 +32 +40 очень
душно
1007.4 999.6
06 18.08 З 4 20 км 3/3 1000 м
[Sc Ci fib]
+28.3 +17.4 52 +32 +38 душно 1006.6 998.9
09 18.08 С 4 20 км ясно +27.0 +20.0 66 +33 +34 очень
душно
1006.2 998.4
12 18.08 З 4 20 км 4/0
[Ci fib]
+24.7 +20.5 77 +31 +31 очень
душно
1008.0 1000.2 +28.4
15 18.08 З 1 20 км 5/0
[Ci fib]
+23.7 +19.6 78 +29 +29 душно 1008.5 1000.7
18 18.08 ЮЗ 1 20 км 1/0
[Ci fib]
+23.3 +20.8 86 +31 +31 очень
душно
1009.1 1001.2
21 18.08 СВ 1 10 км 5/0
[Ci fib]
+22.9 +20.9 89 +30 +30 очень
душно
1009.7 1001.8
00 19.08 СВ 1 8000 м дымка 8/3 300 м
[Cu hum Ci fib]
+25.1 +20.3 75 +31 +36 очень
душно
1010.3 1002.4 +22.8
03 19.08 С 3 16 км 8/4 1000 м
[Sc Ci fib]
+27.4 +19.4 62 +33 +41 очень
душно
1010.0 1002.2
06 19.08 СЗ 5 20 км 4/4 1500 м
[Sc]
+29.6 +18.3 51 +34 +38 очень
душно
1008.7 1001.0
09 19.08 СЗ 5 20 км 3/0
[Ci fib]
+28.7 +19.6 58 +35 +35 очень
душно
1008.5 1000.8
12 19.08 С 5 20 км ясно +26.4 +21.3 74 +34 +34 очень
душно
1009.6 1001.8 +29.7
15 19.08 С 2 20 км ясно +25.3 +19.8 72 +31 +31 очень
душно
1010.2 1002.3
18 19.08 С 2 20 км 3/3 1500 м
[Sc]
+24.3 +20.2 78 +30 +30 очень
душно
1010.1 1002.3
21 19.08 В 3 18 км ясно +23.8 +18.6 73 +28 +28 душно 1010.4 1002.6
00 20.08 В 4 19 км ясно +27.6 +19.6 62 +33 +39 очень
душно
1010.3 1002.5 +23.5
03 20.08 Ю 2 18 км 4/3 600 м
[Cu Sc Ci fib]
+31.2 +19.8 51 +37 +49 очень
душно
1010.0 1002.3
06 20.08 З 3 17 км 8/3 600 м
[Cu Sc Ci fib]
+31.3 +19.6 50 +37 +43 очень
душно
1008.4 1000.7
09 20.08 З 3 13 км 6/3 1000 м
[Sc Ci fib]
+30.2 +20.4 56 +37 +38 очень
душно
1008.0 1000.3
12 20.08 С 3 6000 м мгла 1/1 1000 м
[Sc]
+27.8 +21.5 69 +36 +36 очень
душно
1008.7 1000.9 +31.4
15 20.08 Ю 3 19 км 6/0
[Ac trans]
+27.2 +19.5 63 +33 +33 очень
душно
1008.7 1000.9
18 20.08 Ю 4 20 км 8/0
[Ci fib]
+26.0 +19.1 66 +31 +31 очень
душно
1008.0 1000.2
21 20.08 ЮВ 3 20 км 8/0
[Ac trans Ci fib]
+24.8 +17.2 63 +29 +29 душно 1008.2 1000.4
00 21.08 Ю 5 15 км 8/0
[Ac trans Ci fib]
+26.6 +19.7 66 +32 +35 очень
душно
1009.0 1001.2 +24.7
03 21.08 З 2 9000 м мгла 8/1 1000 м
[Sc Ac trans]
+29.4 +21.6 63 +37 +46 очень
душно
1008.5 1000.8
06 21.08 З 4 9000 м мгла 8/3 1000 м
[Sc Ci sp]
+30.3 +22.1 62 +39 +44 очень
душно
1007.5 999.8
09 21.08 С 2 5000 м слаб. дождь 10/5 1000 м
[Sc As op]
+27.0 +23.2 80 +36 +37 очень
душно
1007.6 999.8
12 21.08 Ю 3 6000 м слаб. дождь 10/6 600 м
[Frnb As op]
+25.7 +22.1 81 +33 +33 очень
душно
1007.8 1000.0 +30.7 0.6
15 21.08 С 2 2500 м дымка {дождь} 6/0
[Ac trans Ci fib]
+25.2 +23.4 90 +34 +34 очень
душно
1008.1 1000.3
18 21.08 С 5 3400 м дымка {дождь} 3/0
[Ci fib]
+24.4 +22.4 89 +32 +32 очень
душно
1006.8 999.0
21 21.08 СВ 2 3500 м дымка 9/0
[Ac trans]
+23.9 +22.1 90 +31 +31 очень
душно
1006.5 998.7
00 22.08 С 3 5000 м дымка 8/0
[Cc]
+26.2 +21.1 74 +33 +38 очень
душно
1006.3 998.5 +23.9 0.0
03 22.08 З 3 11 км 6/0
[Ci fib]
+28.2 +20.4 63 +35 +48 очень
душно
1005.9 998.2
06 22.08 С 5 20 км 6/1 1000 м
[Sc Ci fib]
+29.1 +18.2 52 +34 +39 очень
душно
1005.3 997.6
09 22.08 СЗ 4 11 км 8/0
[Cc]
+27.1 +21.1 70 +34 +35 очень
душно
1005.9 998.1
12 22.08 З 4 16 км 9/8 1000 м
[Sc Ac trans]
+26.0 +21.6 77 +33 +33 очень
душно
1007.1 999.3 +29.4
15 22.08 ЮЗ 1 17 км 9// 1000 м
[Sc]
+25.6 +21.2 77 +32 +32 очень
душно
1007.0 999.2
18 22.08 З 3 16 км 8/8 1000 м
[Sc Ci fib]
+25.1 +19.9 73 +31 +31 очень
душно
1007.1 999.3

 

Местоположение метеостанции Инчхон (Корея): широта 37.47 долгота 126.63 высота над уровнем моря 70 м.

В архиве по умолчанию представлена погода в Инчхоне за последнюю неделю. Архивные данные за месяц целиком и за предыдущие месяцы, начиная с января 2011 года, Вы можете получить, выбрав интересующий диапазон дат из раскрывающегося списка и нажав кнопку "Ввод!".


*Определитесь, кто Вы:
робот инопланетянин человек

Внимание! Время в таблицах - всемирное. Для получения местного времени необходимо прибавить поправку, которая равна 9 ч.

Смотрите также архив погоды в соседних городах и на ближайших метеорологических станциях:

Погода в Сеуле (Корея) (31 км)
Погода в Сувоне (Корея) (38 км)
Погода в Мунсане (Корея) (47 км)
Погода в Кэсоне (КНДР) (56 км)
Погода в Тондучхоне (Корея) (61 км)
Погода на Базе Camp Humphreys (Корея) (68 км)
Погода в Ичхоне (Корея) (78 км)
Погода в Сосане (Корея) (79 км)
Погода в Букчунчеоне (Корея) (89 км)
Погода в Чхонане (Корея) (89 км)

Пояснения к столбцам:

Ветер - указаны скорость ветра в м/с - средняя за 10 мин, порывы в срок и между сроками (в фигурных скобках) и направление, откуда дует ветер: С - северный, СВ - северо-восточный, В - восточный, ЮВ - юго-восточный, Ю - южный, ЮЗ - юго-западный, З - западный, СЗ - северо-западный.
Видимость - горизонтальная дальность видимости в метрах или километрах. При видимости от 1 до 10 км при отсутствии осадков обычно наблюдается дымка, при ухудшении видимости до 1 км и менее - туман. В сухую погоду видимость может ухудшаться дымом, пылью или мглою.
Явления - указаны атмосферные явления, наблюдавшиеся в срок или в последний час перед сроком; фигурными скобками обозначены явления, наблюдавшиеся между сроками (за 1-3 часа до срока); квадратными скобками обозначены град или гололедные отложения с указанием их диаметра в мм.
Облачность - указаны через наклонную черту общая и нижняя облачность в баллах и высота нижней границы облаков в метрах; квадратными скобками обозначены формы облаков: Ci - перистые, Cs - перисто-слоистые, Cc - перисто-кучевые, Ac - высококучевые, As - высокослоистые, Sc - слоисто-кучевые, Ns - слоисто-дождевые, Cu - кучевые, Cb - кучево-дождевые. Подробнее классификацию облаков см. в Атласе облаков (PDF).
T - Температура воздуха - температура, измеренная на высоте 2 м над землей.
Td - Температура точки росы - температура, при понижении до которой содержащийся в воздухе водяной пар достигнет насыщения.
f - Относительная влажность воздуха - влажноcть воздуха, измеренная на высоте 2 м над землей.
Te - Эффективная температура - температура, которую ощущает одетый по сезону человек в тени. Характеристика душности погоды. При расчете учитывается влияние влажности воздуха и скорости ветра на теплоощущения человека.
Tes - Эффективная температура на солнце - температура, которую ощущает человек, с поправкой на солнечный нагрев. Характеристика знойности погоды. Зависит от высоты солнца над горизонтом, облачности и скорости ветра. Ночью, в пасмурную погоду, а также при ветре 12 м/с и более поправка равна нулю.
P - Атмосферное давление - приведенное к уровню моря атмосферное давление.
Po - Атмосферное давление - измеренное на уровне метеостанции атмосферное давление.
Tmin - Минимальная температура - минимум температуры воздуха на высоте 2 м над землей.
Tmax - Максимальная температура - максимум температуры воздуха на высоте 2 м над землей.
R - Количество осадков - Количество выпавших осадков за период времени, мм. При наведении курсора мыши на число - период времени, за который выпало указанное количество осадков.
R24 - Количество осадков - Количество выпавших осадков за 24 часа, мм.
S - Снежный покров - Высота снежного покрова, см. При наведении курсора мыши на число - состояние снежного покрова и степень покрытия местности в баллах.